Terminal Aerodrome Forecast
Issued by NWS

Current Version | Previous Version | Text Only | Print | Product List | Glossary Off
Versions: 1 2 3 4 5 6 7 8 9 10 11 12 13 14 15 16 17 18 19

000
FTUS41 KPBZ 191100
TAFHLG
TAF
KHLG 191137Z 1912/2012 22010KT P6SM BKN035
     FM191900 18011G18KT P6SM BKN050
     FM200100 18009KT 4SM -SN BKN025=

USA.gov is the U.S. government's official web portal to all federal, state and local government web resources and services.